📊 Raw Sensor Data
Showing records 47326 to 47350 of 85,083 total
| ID | Distance (ft) | Battery V | Battery A | Int Temp (°F) | Int Humid (%) | Ext Temp (°F) | Solar V | RSSI | SNR | Time Stamp |
|---|---|---|---|---|---|---|---|---|---|---|
| 37770 | -- | 3.77 | -5 | 45 | 41 | 51 | 0.10 | -70 | 8 | 04/14/2025 06:00 AM |
| 37769 | 15.5 | 3.82 | -5 | 44 | 41 | 46 | 0.00 | -70 | 8 | 04/14/2025 05:45 AM |
| 37768 | -- | 3.77 | -5 | 45 | 41 | 46 | 0.10 | -70 | 8 | 04/14/2025 05:30 AM |
| 37767 | -- | 3.77 | -5 | 46 | 40 | 48 | 0.00 | -70 | 9 | 04/14/2025 05:15 AM |
| 37766 | -- | 3.82 | -5 | 46 | 40 | 49 | 0.10 | -70 | 9 | 04/14/2025 05:00 AM |
| 37765 | -- | 3.77 | -5 | 45 | 41 | 47 | 0.00 | -69 | 8 | 04/14/2025 04:45 AM |
| 37764 | -- | 3.77 | -5 | 45 | 41 | 48 | 0.10 | -69 | 8 | 04/14/2025 04:30 AM |
| 37763 | 15.5 | 3.77 | -5 | 45 | 41 | 48 | 0.00 | -70 | 9 | 04/14/2025 04:15 AM |
| 37762 | 15.5 | 3.77 | -5 | 45 | 42 | 48 | 0.10 | -69 | 8 | 04/14/2025 04:00 AM |
| 37761 | -- | 3.83 | -5 | 45 | 42 | 45 | 0.00 | -69 | 8 | 04/14/2025 03:45 AM |
| 37760 | 15.5 | 3.78 | -5 | 46 | 42 | 47 | 0.00 | -69 | 8 | 04/14/2025 03:30 AM |
| 37759 | 15.4 | 3.78 | -5 | 46 | 43 | 49 | 0.00 | -69 | 8 | 04/14/2025 03:15 AM |
| 37758 | -- | 3.78 | -5 | 46 | 43 | 47 | 0.00 | -69 | 8 | 04/14/2025 03:00 AM |
| 37757 | 15.6 | 3.78 | -5 | 49 | 42 | 46 | 0.00 | -69 | 8 | 04/14/2025 02:45 AM |
| 37756 | -- | 3.83 | -5 | 51 | 41 | 54 | 0.00 | -68 | 8 | 04/14/2025 02:31 AM |
| 37755 | -- | 3.78 | -5 | 52 | 41 | 54 | 0.10 | -69 | 8 | 04/14/2025 02:15 AM |
| 37754 | -- | 3.78 | -5 | 52 | 41 | 54 | 0.00 | -70 | 8 | 04/14/2025 02:00 AM |
| 37753 | -- | 3.78 | -5 | 52 | 41 | 55 | 0.00 | -69 | 8 | 04/14/2025 01:45 AM |
| 37752 | -- | 3.78 | -5 | 52 | 41 | 54 | 0.00 | -70 | 8 | 04/14/2025 01:30 AM |
| 37751 | -- | 3.83 | -5 | 53 | 41 | 54 | 0.00 | -70 | 8 | 04/14/2025 01:15 AM |
| 37750 | -- | 3.78 | -5 | 53 | 41 | 56 | 0.10 | -70 | 8 | 04/14/2025 01:00 AM |
| 37749 | -- | 3.79 | -5 | 53 | 42 | 56 | 0.00 | -70 | 8 | 04/14/2025 12:45 AM |
| 37748 | 15.6 | 3.79 | -5 | 53 | 42 | 57 | 0.00 | -70 | 8 | 04/14/2025 12:30 AM |
| 37747 | 15.6 | 3.79 | -5 | 53 | 43 | 55 | 0.00 | -70 | 8 | 04/14/2025 12:15 AM |
| 37746 | 15.6 | 3.79 | -5 | 55 | 42 | 56 | 0.10 | -69 | 8 | 04/14/2025 12:00 AM |